Regional Weather Roundup
Issued by NWS

Home | Current Version | Previous Version | Text Only | Print | Product List | Glossary On
Versions: 1 2 3 4 5 6 7 8 9 10 11 12 13 14 15 16 17 18 19 20 21 22 23 24 25 26 27
000
ASUS46 KPQR 250210
RWROR

OREGON REGIONAL WEATHER ROUNDUP
NATIONAL WEATHER SERVICE PORTLAND OR
700 PM PDT WED MAY 24 2017

NOTE: "FAIR" INDICATES FEW OR NO CLOUDS BELOW 12,000 FEET WITH
NO SIGNIFICANT WEATHER AND/OR OBSTRUCTIONS TO VISIBILITY.

ORZ001>013-250300-
NORTHWEST OREGON


CITY           SKY/WX    TMP DP  RH WIND       PRES   REMARKS
ASTORIA        CLOUDY    54  44  69 NW10      29.99F
NEWPORT        SUNNY     54  46  76 N15G23    30.03F
PORTLAND       MOSUNNY   62  41  46 NW15      29.95F
VANCOUVER WA   SUNNY     61  43  51 NW13      29.95F
SCAPPOOSE      SUNNY     59  43  55 NW10      29.95F
HILLSBORO      SUNNY     58  43  57 NW13      29.95F
AURORA         MOSUNNY   62  40  44 NW13G20   29.95F
MCMINNVILLE    SUNNY     61  41  47 NW14G20   29.96S
SALEM          SUNNY     61  42  49 NW13G24   29.93F
CORVALLIS      MOSUNNY   64  45  48 NW5       29.93F
EUGENE         MOSUNNY   60  46  59 NE13      29.93F
$$

ORZ021-028-250300-
SOUTHWEST OREGON


CITY           SKY/WX    TMP DP  RH WIND       PRES   REMARKS
NORTH BEND     MOSUNNY   55  48  76 N24G37    29.98F
BROOKINGS      SUNNY     73  43  33 N14G21    29.74S
ROSEBURG       SUNNY     68  40  35 N14G23    29.89F
SEXTON SUMMIT  SUNNY     53  27  36 VRB5G16   29.88F
MEDFORD        SUNNY     71  35  26 N14       29.80R
$$

ORZ014>016-041-250300-
COLUMBIA GORGE


CITY           SKY/WX    TMP DP  RH WIND       PRES   REMARKS
TROUTDALE      PTSUNNY   62  43  49 W9        29.94S
HOOD RIVER     CLOUDY    59  41  51 CALM      29.88F
THE DALLES     MOSUNNY   65  41  41 W23G32    29.83F
$$

ORZ029>031-041-044-049-050-061>064-502-503-505>511-250300-
EASTERN OREGON


CITY           SKY/WX    TMP DP  RH WIND       PRES   REMARKS
REDMOND        SUNNY     57  29  34 N21       29.83S
BEND           SUNNY     57  30  35 N14G22    29.79S
PRINEVILLE     SUNNY     55  32  41 MISG      29.84S
KLAMATH FALLS  SUNNY     66  38  35 NW20G26   29.77S
HERMISTON      PTSUNNY   66  40  38 W14       29.76S
PENDLETON      MOSUNNY   61  39  44 W17       29.77S
JOHN DAY       SUNNY     59  27  29 N17       29.79S
MEACHAM        SUNNY     52  19  27 VRB5      29.81S
LA GRANDE      SUNNY     57  28  33 N17       29.78R
BAKER CITY     SUNNY     55  28  35 NW22G31   29.76R
BURNS          SUNNY     60  21  22 NW17      29.75F
ROME             N/A     68   8   9 NW22G36   29.69R
ONTARIO        SUNNY     68  27  21 NW24      29.66R
$$




USA.gov is the U.S. government's official web portal to all federal, state and local government web resources and services.